Location: Walsall
(52.5862°N, 1.9829°W)
Time: 01:46:37
(UTC+01:00)

X-37B - Pass Details

Date: 24 June 2021
Orbit: 383 x 392 km, 45.0° (Epoch: 01 July)

Event Time Altitude Azimuth Distance (km) Brightness Sun altitude
Rises 23:42:44 0° 242° (WSW) 2,254 4.4 -11.6°
Reaches altitude 10° 23:45:07 10° 225° (SW) 1,401 3.2 -11.8°
Enters shadow 23:47:21 20° 180° (S) 952 2.0 -11.9°
